Weather History for Riverside March, CA

Change the Weather History Date:

Wednesday, January 2, 2013

  Actual Average Record
Temperature  
Mean Temperature 46 °F -  
Max Temperature 61 °F 64 °F 82 °F (2012)
Min Temperature 32 °F 39 °F 32 °F (2013)
Degree Days  
Heating Degree Days 18    
Moisture  
Dew Point 25 °F    
Average Humidity 48    
Maximum Humidity 74    
Minimum Humidity 26    
Precipitation  
Precipitation 0.00 in - - ()
Sea Level Pressure  
Sea Level Pressure 30.10 in    
Wind  
Wind Speed 5 mph (NNW)    
Max Wind Speed 15 mph    
Max Gust Speed 21 mph    
Visibility 10 miles    
Events      
Averages and records for this station are not official NWS values.
T = Trace of Precipitation, MM = Missing Value Source: NWS Daily Summary

Daily Weather History Graph

Daily Weather History Graph

Search for Another Location

Airport:

Trip Planner

Search our weather history database for the weather conditions in past years. The results will help you decide how hot, cold, wet, or windy it might be!

Date:

Astronomy

Jan. 02, 2013 Rise Set
Actual Time 6:54 AM PST 4:52 PM PST
Civil Twilight 6:26 AM PST 5:19 PM PST
Nautical Twilight 5:55 AM PST 5:50 PM PST
Astronomical Twilight 5:25 AM PST 6:21 PM PST
Moon 10:12 PM PST (1/2) 9:53 AM PST (1/2)
Length of Visible Light 10h 52m
Length of Day
9h 57m
Waning Gibbous, 74% of the Moon is Illuminated
Jan 2
Waning Gibbous
Jan 4
Last Quarter
Jan 11
New
Jan 18
First Quarter
Jan 26
Full

Hourly Weather History & Observations

Time (PST) Temp. Windchill Dew Point Humidity Pressure Visibility Wind Dir Wind Speed Gust Speed Precip Events Conditions
12:58 AM 39.9 °F 35.8 °F 24.4 °F 54% 30.16 in 10.0 mi North 5.8 mph - N/A   Clear
1:58 AM 44.4 °F - 18.5 °F 35% 30.13 in 10.0 mi Calm Calm - N/A   Clear
2:58 AM 32.7 °F - 25.0 °F 73% 30.14 in 10.0 mi Calm Calm - N/A   Clear
3:58 AM 35.2 °F 32.4 °F 22.6 °F 60% 30.12 in 10.0 mi SE 3.5 mph - N/A   Clear
4:58 AM 36.5 °F 33.9 °F 21.7 °F 55% 30.13 in 10.0 mi Variable 3.5 mph - N/A   Clear
5:58 AM 36.5 °F 32.7 °F 23.5 °F 59% 30.14 in 10.0 mi North 4.6 mph - N/A   Clear
6:58 AM 38.7 °F 35.2 °F 23.7 °F 55% 30.12 in 10.0 mi NE 4.6 mph - N/A   Clear
7:58 AM 44.8 °F 41.0 °F 23.4 °F 43% 30.12 in 10.0 mi North 6.9 mph - N/A   Clear
8:58 AM 52.3 °F - 22.3 °F 31% 30.12 in 10.0 mi West 4.6 mph - N/A   Clear
9:46 AM 55.4 °F - 21.2 °F 26% 30.10 in 10.0 mi NE 12.7 mph 20.7 mph N/A   Clear
9:58 AM 55.2 °F - 23.4 °F 29% 30.11 in 10.0 mi NNE 10.4 mph - N/A   Clear
10:58 AM 56.8 °F - 23.0 °F 27% 30.10 in 10.0 mi Variable 6.9 mph - N/A   Clear
11:58 AM 58.8 °F - 25.3 °F 28% 30.08 in 10.0 mi NW 8.1 mph - N/A   Clear
12:58 PM 59.9 °F - 25.5 °F 27% 30.05 in 10.0 mi NW 6.9 mph - N/A   Clear
1:58 PM 61.3 °F - 25.9 °F 26% 30.05 in 10.0 mi NW 8.1 mph - N/A   Clear
2:58 PM 61.0 °F - 26.6 °F 27% 30.05 in 10.0 mi NNW 15.0 mph - N/A   Clear
3:58 PM 59.2 °F - 27.3 °F 30% 30.06 in 10.0 mi North 8.1 mph - N/A   Clear
4:58 PM 49.3 °F - 30.7 °F 49% 30.06 in 10.0 mi NNW 8.1 mph - N/A   Clear
5:58 PM 44.2 °F 40.3 °F 28.4 °F 54% 30.08 in 10.0 mi NNE 6.9 mph - N/A   Clear
6:58 PM 43.3 °F - 27.5 °F 54% 30.08 in 10.0 mi NNW 2.3 mph - N/A   Clear
7:58 PM 38.8 °F - 26.4 °F 61% 30.09 in 10.0 mi NW 2.3 mph - N/A   Clear
8:58 PM 38.3 °F - 28.0 °F 67% 30.07 in 10.0 mi NW 2.3 mph - N/A   Clear
9:58 PM 33.6 °F - 26.1 °F 74% 30.08 in 10.0 mi WNW 2.3 mph - N/A   Clear
10:58 PM 33.4 °F - 25.5 °F 73% 30.08 in 10.0 mi Variable 2.3 mph - N/A   Clear
11:58 PM 32.5 °F 28.1 °F 24.1 °F 71% 30.08 in 10.0 mi West 4.6 mph - N/A   Clear